Location: Newark
(59.4564°N, 26.6917°E)
Time: 01:52:07
(UTC+00:00)

Transit 4A - Visible Passes

Search period start: 23 November 2019 00:00
Search period end: 03 December 2019 00:00
Orbit: 869 x 976 km, 66.8° (Epoch: 22 November)

Date Brightness Start Highest point End Pass type
(mag) Time Alt. Az. Time Alt. Az. Time Alt. Az.
23 Nov 9.8 00:45:24 24° ENE 00:45:24 24° ENE 00:47:46 10° E visible
23 Nov 7.7 02:28:56 81° N 02:29:07 82° NE 02:35:00 10° SE visible
23 Nov 8.5 04:12:28 24° WNW 04:15:04 35° WSW 04:20:16 10° S visible
24 Nov 9.7 00:54:56 24° E 00:54:56 24° E 00:57:21 10° E visible
24 Nov 7.6 02:38:29 83° SW 02:38:29 83° SW 02:44:20 10° SE visible
24 Nov 8.8 04:22:01 21° W 04:24:09 27° WSW 04:28:54 10° SSW visible
25 Nov 9.6 01:04:33 25° E 01:04:33 25° E 01:06:56 10° ESE visible
25 Nov 7.7 02:48:06 66° SSW 02:48:06 66° SSW 02:53:33 10° SSE visible
25 Nov 9.1 04:31:39 18° W 04:33:11 20° WSW 04:37:17 10° SSW visible
26 Nov 9.6 01:14:15 24° ESE 01:14:15 24° ESE 01:16:29 10° ESE visible
26 Nov 8.1 02:57:49 49° SSW 02:57:49 49° SSW 03:02:40 10° SSE visible
26 Nov 9.3 04:41:21 15° W 04:42:09 15° WSW 04:45:15 10° SW visible
27 Nov 9.7 01:24:02 22° ESE 01:24:02 22° ESE 01:25:58 10° ESE visible
27 Nov 8.5 03:07:35 36° SSW 03:07:35 36° SSW 03:11:38 10° S visible
27 Nov 9.7 04:51:09 10° W 04:51:09 10° W 04:52:00 10° WSW visible
28 Nov 9.8 01:33:54 19° SE 01:33:54 19° SE 01:35:22 10° SE visible
28 Nov 9.0 03:17:27 25° SSW 03:17:27 25° SSW 03:20:24 10° S visible
29 Nov 10.0 01:43:50 14° SE 01:43:50 14° SE 01:44:40 10° SE visible
29 Nov 9.5 03:27:25 16° SSW 03:27:25 16° SSW 03:28:57 10° SSW visible
30 Nov 10.0 16:58:58 10° SSE 16:59:16 11° SSE 16:59:16 11° SSE visible
01 Dec 9.7 17:07:35 10° S 17:09:13 18° S 17:09:13 18° S visible
02 Dec 9.8 15:35:09 10° ESE 15:35:31 11° ESE 15:35:31 11° ESE visible
02 Dec 9.3 17:16:25 10° SSW 17:19:05 25° S 17:19:05 25° S visible
02 Dec 10.4 19:02:15 10° WSW 19:02:39 12° WSW 19:02:39 12° WSW visible
